This demonstration page uses our WeatherBlox Daily Observations layout. Learn more.

Left ArrowRight Arrow

38.20091, -84.87328

Hourly Observations for January 16, 2022

Temp ( °F °C ) Dew Point ( °F °C ) Humidity (%) Winds ( mph kmh ) Pressure ( in mb ) Visibility ( mi km ) Precip ( " mm )
12:53 am 00:53 Clear 28 -2.2 17 -8.3 63 63 NE 9 15 30.12 1020 10 16 0.00 0.00
1:53 am 01:53 Clear 28 -2.2 17 -8.3 63 63 ENE 9 15 30.08 1019 10 16 0.00 0.00
2:53 am 02:53 Clear 28 -2.2 16 -8.9 60 60 NE 8 13 30.06 1018 10 16 0.00 0.00
3:53 am 03:53 Cloudy 28 -2.2 16 -8.9 60 60 NE 9 15 30.03 1017 10 16 0.00 0.00
4:53 am 04:53 Cloudy 28 -2.2 16 -8.9 60 60 NE 6 9 30.00 1016 10 16 0.00 0.00
5:53 am 05:53 Cloudy 27 -2.8 15 -9.4 61 61 NE 8 13 29.97 1015 10 16 0.00 0.00
6:53 am 06:53 Mostly Clear 27 -2.8 14 -10 58 58 NE 12 19 29.94 1014 10 16 0.00 0.00
7:53 am 07:53 Mostly Cloudy 27 -2.8 15 -9.4 61 61 NE 10 17 29.94 1014 10 16 0.00 0.00
8:53 am 08:53 Cloudy 27 -2.8 15 -9.4 61 61 NE 8 13 29.91 1013 10 16 0.00 0.00
9:53 am 09:53 Cloudy 28 -2.2 16 -8.9 60 60 NE 7 11 29.87 1012 10 16 0.00 0.00
10:53 am 10:53 Cloudy 29 -1.7 17 -8.3 61 61 NNE 7 11 29.84 1010 10 16 0.00 0.00
11:53 am 11:53 Cloudy 30 -1.1 20 -6.7 66 66 NNE 8 13 29.79 1009 10 16 0.00 0.00
12:53 pm 12:53 Cloudy 32 0 20 -6.7 61 61 N 9 15 29.74 1007 10 16 0.00 0.00
1:53 pm 13:53 Cloudy 31 -0.6 21 -6.1 67 67 N 10 17 29.70 1006 10 16 0.00 0.00
2:09 pm 14:09 Cloudy 32 0 22 -5.6 66 66 N 8 13 29.70 1006 10 16 0.00 0.00
2:53 pm 14:53 Cloudy 31 -0.6 23 -5 72 72 N 10 17 29.66 1005 10 16 0.00 0.00
3:53 pm 15:53 Cloudy with Light Freezing Rain 30 -1.1 27 -2.8 88 88 N 10 17 29.65 1004 4 6 0.02 0.51
4:11 pm 16:11 Cloudy with Light Freezing Rain 30 -1.1 27 -2.8 88 88 N 9 15 29.67 1005 4 6 0.01 0.25
4:53 pm 16:53 Cloudy with Light Freezing Rain 30 -1.1 27 -2.8 88 88 N 9 15 29.64 1004 6 10 0.02 0.51
5:06 pm 17:06 Cloudy with Light Snow 30 -1.1 27 -2.8 88 88 N 9 15 29.66 1005 3 5 0.00 0.00
5:15 pm 17:15 Cloudy with Light Snow 30 -1.1 27 -2.8 88 88 N 9 15 29.65 1004 3 5 0.01 0.25
5:25 pm 17:25 Cloudy with Light Snow 30 -1.1 27 -2.8 88 88 N 8 13 29.65 1004 2 3 0.01 0.25
5:37 pm 17:37 Cloudy with Light Snow 30 -1.1 27 -2.8 88 88 NNW 10 17 29.65 1004 3 4 0.01 0.25
5:53 pm 17:53 Cloudy with Light Snow 30 -1.1 26 -3.3 85 85 NNW 10 17 29.63 1003 3 4 0.02 0.51
6:07 pm 18:07 Cloudy with Light Snow 29 -1.7 26 -3.3 89 89 NNW 13 20 29.66 1004 3 4 0.00 0.00
6:35 pm 18:35 Cloudy with Light Snow 29 -1.7 26 -3.3 89 89 NNW 9 15 29.67 1005 3 5 0.01 0.25
6:53 pm 18:53 Cloudy with Light Snow 29 -1.7 26 -3.3 89 89 NNW 9 15 29.64 1004 2 3 0.01 0.25
7:02 pm 19:02 Cloudy with Light Snow 29 -1.7 26 -3.3 89 89 NNW 10 17 29.67 1005 2 3 0.00 0.00
7:17 pm 19:17 Cloudy with Light Snow 29 -1.7 26 -3.3 89 89 NW 10 17 29.67 1005 1 2 0.02 0.51
7:27 pm 19:27 Cloudy with Light Snow 29 -1.7 27 -2.8 92 92 NW 8 13 29.67 1005 1 1 0.02 0.51
7:34 pm 19:34 Cloudy with Light Snow 29 -1.7 27 -2.8 92 92 NNW 8 13 29.67 1005 1 2 0.03 0.76
7:42 pm 19:42 Cloudy with Light Snow 29 -1.7 27 -2.8 92 92 NNW 7 11 29.67 1005 1 2 0.03 0.76
7:53 pm 19:53 Cloudy with Light Snow 29 -1.7 27 -2.8 92 92 NNW 6 9 29.63 1003 2 3 0.03 0.76
8:13 pm 20:13 Mostly Cloudy with Light Snow 29 -1.7 27 -2.8 92 92 NNW 7 11 29.64 1004 1 1 0.02 0.51
8:31 pm 20:31 Cloudy with Light Snow 29 -1.7 27 -2.8 92 92 NNW 7 11 29.65 1004 1 2 0.03 0.76
8:38 pm 20:38 Cloudy with Light Snow 29 -1.7 28 -2.2 96 96 NNW 9 15 29.64 1004 1 2 0.03 0.76
8:53 pm 20:53 Cloudy with Light Snow 30 -1.1 28 -2.2 92 92 NW 7 11 29.61 1003 2 3 0.03 0.76
9:12 pm 21:12 Cloudy with Light Snow 30 -1.1 28 -2.2 92 92 NNW 9 15 29.63 1004 2 3 0.01 0.25
9:26 pm 21:26 Cloudy with Light Snow 30 -1.1 28 -2.2 92 92 NW 7 11 29.63 1004 2 2 0.01 0.25
9:50 pm 21:50 Cloudy with Light Snow 30 -1 28 -2 93 93 NW 7 11 29.63 1004 1 2 0.02 0.51
9:53 pm 21:53 Cloudy with Light Snow 30 -1.1 28 -2.2 92 92 NW 7 11 29.60 1003 1 2 0.02 0.51
10:00 pm 22:00 Cloudy with Light Snow 30 -1.1 28 -2.2 92 92 NW 7 11 29.63 1004 2 3 0.00 0.00
10:08 pm 22:08 Cloudy with Light Snow 30 -1.1 28 -2.2 92 92 NW 8 13 29.63 1004 3 4 0.00 0.00
10:44 pm 22:44 Cloudy with Mist and Fog 31 -0.6 28 -2.2 89 89 WNW 7 11 29.62 1003 4 6 0.00 0.00
10:53 pm 22:53 Cloudy 31 -0.6 28 -2.2 89 89 WNW 7 11 29.60 1002 7 11 0.00 0.00
11:36 pm 23:36 Cloudy 30 -1.1 28 -2.2 92 92 WNW 9 15 29.62 1003 8 13 0.00 0.00
11:53 pm 23:53 Cloudy 30 -1.1 26 -3.3 85 85 WNW 7 11 29.59 1002 10 16 0.00 0.00

Powered by AerisWeather